Location: Allonne
(49.4086°N, 2.1143°E)
Time: 18:41:48
(UTC+00:00)

MOS 1-B - Visible Passes

Search period start: 01 October 2023 00:00
Search period end: 11 October 2023 00:00
Orbit: 905 x 913 km, 99.4° (Epoch: 01 October)

Date Brightness Start Highest point End Pass type
(mag) Time Alt. Az. Time Alt. Az. Time Alt. Az.
01 Oct 4.4 18:39:18 10° SE 18:44:56 58° ENE 18:50:37 10° N visible
01 Oct 6.2 20:22:21 10° SSW 20:27:07 27° W 20:31:57 10° NW visible
02 Oct 4.4 18:44:23 10° SSE 18:50:05 63° ENE 18:55:48 10° N visible
02 Oct 6.3 20:27:44 10° SW 20:32:20 24° W 20:36:59 10° NW visible
03 Oct 4.3 18:49:29 10° SSE 18:55:12 68° ENE 19:00:59 10° NNW visible
03 Oct 6.4 20:33:08 10° SW 20:37:33 22° W 20:42:00 10° NW visible
04 Oct 4.3 18:54:36 10° SSE 19:00:21 74° ENE 19:06:09 10° NNW visible
04 Oct 6.5 20:38:33 10° SW 20:42:46 21° W 20:47:00 10° NW visible
05 Oct 4.3 18:59:43 10° SSE 19:05:29 80° ENE 19:11:19 10° NNW visible
05 Oct 6.7 20:44:01 10° SW 20:47:59 19° W 20:51:58 10° NW visible
06 Oct 4.3 19:04:51 10° SSE 19:10:38 86° ENE 19:16:28 10° NNW visible
06 Oct 6.8 20:49:31 10° SW 20:53:12 17° W 20:56:55 10° NW visible
07 Oct 4.3 19:10:00 10° SSE 19:15:47 87° WSW 19:21:37 10° NNW visible
07 Oct 6.8 20:55:04 10° WSW 20:58:26 16° W 21:01:50 10° NW visible
08 Oct 4.4 19:15:09 10° SSE 19:20:56 81° WSW 19:26:46 10° NNW visible
08 Oct 6.9 21:00:40 10° WSW 21:03:40 14° W 21:06:41 10° NW visible
09 Oct 5.5 17:40:24 10° ESE 17:44:49 23° NE 17:49:15 10° N visible
09 Oct 4.5 19:20:19 10° S 19:26:05 75° WSW 19:31:55 10° NNW visible
09 Oct 7.0 21:06:21 10° WSW 21:08:54 13° W 21:11:28 10° WNW visible
10 Oct 5.4 17:45:20 10° ESE 17:49:54 25° ENE 17:54:29 10° N visible
10 Oct 4.6 19:25:46 11° S 19:31:15 69° WSW 19:37:03 10° NNW visible
10 Oct 7.0 21:12:11 10° WSW 21:14:09 12° W 21:16:07 10° WNW visible
